Precipitable_Water
1.47 1.54 1.69 1.69 1.65 1.59 1.56 1.49 1.41 1.39 1.40 1.38 1.35 1.34 1.36 1.38 1.33 1.31 1.31 1.33 1.36 1.36 1.39 1.45 1.49 1.52 1.52 1.49 1.47 1.43 1.37 1.30 1.26 1.20 1.15 1.13 1.10 1.06 1.07 1.10 1.11 1.08 1.11 1.17 1.18 1.15 1.06 1.12 1.18 1.21 1.22 1.18 1.10 1.07 1.08 1.06 1.05 1.03 1.00 1.04 1.08 1.08 1.09 1.09 1.09 1.10 1.08 1.02 0.93 0.94 0.89 0.86 0.81 0.81 0.83 0.83 0.81 0.79 0.82 0.85 0.87 0.91 0.94 0.93 0.82
1.51 1.64 1.73 1.73 1.67 1.60 1.59 1.55 1.45 1.41 1.42 1.42 1.39 1.37 1.36 1.36 1.38 1.37 1.35 1.35 1.37 1.40 1.44 1.48 1.53 1.52 1.50 1.47 1.43 1.39 1.34 1.31 1.27 1.22 1.14 1.07 1.05 1.08 1.08 1.09 1.08 1.06 1.08 1.10 1.10 1.10 1.06 1.06 1.12 1.17 1.17 1.17 1.12 1.09 1.07 1.05 1.02 0.98 0.98 1.00 1.01 1.01 1.02 1.02 1.03 1.03 1.01 0.98 0.93 0.89 0.90 0.90 0.89 0.88 0.86 0.80 0.75 0.75 0.77 0.79 0.81 0.83 0.87 0.85 0.72
1.61 1.66 1.73 1.74 1.69 1.63 1.61 1.56 1.51 1.47 1.47 1.45 1.42 1.40 1.38 1.34 1.33 1.35 1.38 1.40 1.41 1.43 1.46 1.49 1.48 1.45 1.43 1.39 1.35 1.33 1.30 1.28 1.26 1.19 1.10 1.07 1.09 1.10 1.09 1.08 1.08 1.09 1.07 1.08 1.09 1.09 1.07 1.07 1.09 1.16 1.17 1.13 1.09 1.06 1.03 1.01 1.00 0.99 1.00 0.99 0.98 0.98 0.96 0.96 0.98 0.97 0.99 1.02 0.97 0.91 0.89 0.90 0.90 0.87 0.87 0.87 0.79 0.73 0.76 0.78 0.78 0.79 0.85 0.85 0.74
1.59 1.67 1.74 1.73 1.67 1.62 1.59 1.56 1.51 1.48 1.48 1.47 1.43 1.43 1.42 1.37 1.33 1.33 1.35 1.35 1.35 1.36 1.37 1.38 1.37 1.35 1.33 1.31 1.27 1.24 1.21 1.19 1.17 1.13 1.11 1.13 1.12 1.12 1.10 1.09 1.09 1.09 1.08 1.08 1.06 1.06 1.06 1.05 1.07 1.13 1.15 1.11 1.07 1.02 1.01 1.02 1.00 0.99 1.00 0.98 0.98 0.98 0.97 0.97 0.98 0.99 0.99 0.99 0.99 0.97 0.94 0.92 0.89 0.89 0.88 0.86 0.86 0.87 0.85 0.83 0.81 0.83 0.85 0.85 0.76
1.61 1.67 1.70 1.69 1.68 1.62 1.60 1.56 1.52 1.50 1.49 1.47 1.44 1.42 1.42 1.38 1.35 1.35 1.35 1.33 1.32 1.31 1.31 1.30 1.27 1.24 1.18 1.12 1.10 1.11 1.12 1.11 1.12 1.13 1.14 1.13 1.09 1.09 1.09 1.08 1.09 1.09 1.06 1.05 1.07 1.07 1.06 1.07 1.06 1.10 1.15 1.13 1.07 1.00 1.01 1.00 0.99 0.99 1.00 1.00 0.99 0.98 0.96 0.95 0.94 0.95 0.95 0.95 0.96 0.96 0.93 0.91 0.90 0.92 0.90 0.88 0.87 0.85 0.84 0.85 0.82 0.82 0.83 0.83 0.73
1.65 1.70 1.67 1.68 1.63 1.60 1.56 1.51 1.50 1.49 1.47 1.44 1.42 1.41 1.43 1.40 1.39 1.37 1.33 1.31 1.29 1.28 1.23 1.19 1.13 1.09 1.08 1.10 1.13 1.17 1.18 1.17 1.15 1.15 1.13 1.10 1.08 1.10 1.12 1.13 1.10 1.09 1.10 1.10 1.08 1.09 1.08 1.03 1.06 1.07 1.13 1.14 1.06 1.01 1.01 1.01 1.00 1.00 1.00 0.99 0.98 0.97 0.96 0.95 0.93 0.91 0.92 0.95 0.98 0.98 0.95 0.91 0.88 0.87 0.87 0.83 0.78 0.83 0.84 0.84 0.83 0.82 0.82 0.82 0.74
1.66 1.68 1.63 1.60 1.60 1.57 1.53 1.50 1.49 1.49 1.46 1.42 1.40 1.40 1.42 1.43 1.41 1.38 1.34 1.30 1.26 1.24 1.22 1.22 1.23 1.25 1.30 1.32 1.34 1.34 1.33 1.31 1.29 1.28 1.28 1.29 1.29 1.17 1.12 1.11 1.08 1.08 1.08 1.08 1.09 1.09 1.11 1.09 1.05 1.06 1.09 1.12 1.05 1.02 1.00 1.01 1.01 1.00 1.00 1.00 0.98 0.96 0.95 0.94 0.92 0.90 0.91 0.96 0.97 0.97 0.98 0.96 0.91 0.88 0.89 0.89 0.90 0.86 0.87 0.88 0.85 0.83 0.83 0.82 0.75
1.64 1.61 1.59 1.58 1.60 1.55 1.51 1.47 1.48 1.48 1.47 1.46 1.41 1.41 1.41 1.41 1.39 1.38 1.36 1.33 1.30 1.31 1.36 1.39 1.40 1.41 1.42 1.43 1.44 1.43 1.42 1.41 1.38 1.36 1.35 1.36 1.36 1.38 1.35 1.17 1.12 1.07 1.04 1.05 1.09 1.09 1.09 1.11 1.09 1.03 1.07 1.11 1.09 1.02 1.01 1.00 1.00 1.03 1.05 1.03 1.00 0.96 0.94 0.94 0.93 0.91 0.90 0.93 0.96 0.98 0.99 0.99 0.98 0.95 0.87 0.89 0.87 0.87 0.84 0.82 0.83 0.82 0.81 0.80 0.76
1.56 1.60 1.59 1.59 1.58 1.53 1.52 1.48 1.46 1.47 1.47 1.47 1.46 1.43 1.43 1.42 1.40 1.40 1.41 1.42 1.45 1.48 1.47 1.46 1.46 1.46 1.46 1.46 1.45 1.47 1.47 1.48 1.46 1.43 1.40 1.39 1.38 1.40 1.44 1.29 1.15 1.09 1.06 1.05 1.03 1.03 1.03 1.06 1.07 1.09 1.11 1.08 1.05 1.05 1.04 1.02 1.02 1.05 1.07 1.06 1.07 1.09 1.04 0.96 0.95 0.92 0.93 0.93 0.94 0.96 0.97 0.97 0.98 0.96 0.93 0.91 0.89 0.87 0.86 0.81 0.82 0.80 0.80 0.79 0.75
1.56 1.58 1.57 1.56 1.56 1.54 1.54 1.51 1.44 1.46 1.48 1.49 1.49 1.49 1.46 1.44 1.44 1.45 1.48 1.50 1.52 1.53 1.52 1.51 1.50 1.48 1.47 1.47 1.47 1.47 1.48 1.48 1.47 1.47 1.46 1.44 1.42 1.42 1.41 1.38 1.26 1.10 1.07 1.08 1.09 1.07 1.05 1.03 1.07 1.12 1.14 1.11 1.10 1.11 1.07 1.06 1.04 1.05 1.05 1.07 1.08 1.08 1.08 1.02 0.94 0.95 0.94 0.94 0.94 0.95 0.94 0.94 0.96 0.94 0.94 0.89 0.78 0.78 0.81 0.87 0.84 0.83 0.82 0.80 0.75
1.53 1.54 1.56 1.56 1.59 1.56 1.53 1.53 1.48 1.44 1.47 1.51 1.51 1.51 1.49 1.51 1.54 1.55 1.54 1.51 1.49 1.53 1.55 1.54 1.53 1.51 1.49 1.47 1.48 1.48 1.48 1.49 1.50 1.49 1.48 1.48 1.43 1.42 1.39 1.38 1.31 1.17 1.09 1.09 1.12 1.11 1.07 1.07 1.15 1.18 1.18 1.14 1.12 1.12 1.11 1.07 1.06 1.06 1.05 1.06 1.07 1.09 1.09 1.07 1.01 0.96 0.95 0.94 0.95 0.94 0.89 0.91 0.94 0.92 0.90 0.92 0.88 0.87 0.88 0.87 0.84 0.80 0.80 0.79 0.74
1.49 1.53 1.55 1.59 1.63 1.59 1.53 1.51 1.48 1.47 1.48 1.50 1.52 1.54 1.54 1.58 1.59 1.53 1.49 1.48 1.49 1.51 1.54 1.55 1.54 1.52 1.50 1.49 1.49 1.51 1.54 1.53 1.51 1.49 1.46 1.43 1.42 1.40 1.38 1.36 1.31 1.25 1.23 1.13 1.11 1.15 1.14 1.12 1.13 1.16 1.15 1.13 1.11 1.09 1.07 1.03 1.03 1.04 1.02 1.05 1.06 1.06 1.05 1.07 1.04 0.99 0.96 0.95 0.95 0.96 0.94 0.94 0.97 0.99 0.99 0.94 0.89 0.91 0.86 0.84 0.82 0.80 0.81 0.81 0.73
1.47 1.51 1.56 1.60 1.62 1.59 1.54 1.51 1.48 1.49 1.55 1.61 1.61 1.58 1.59 1.60 1.59 1.54 1.50 1.49 1.49 1.50 1.52 1.51 1.50 1.49 1.51 1.53 1.56 1.58 1.59 1.56 1.51 1.46 1.42 1.38 1.36 1.34 1.32 1.32 1.28 1.27 1.28 1.26 1.16 1.09 1.13 1.14 1.10 1.11 1.13 1.12 1.09 1.06 1.03 1.02 1.02 1.01 0.99 1.01 1.05 1.08 1.08 1.08 1.08 1.01 0.97 0.98 0.96 0.96 0.95 0.95 0.92 0.93 0.95 0.96 0.95 0.90 0.89 0.84 0.80 0.80 0.80 0.80 0.73
1.45 1.50 1.56 1.61 1.61 1.62 1.56 1.52 1.49 1.46 1.48 1.60 1.63 1.59 1.62 1.61 1.58 1.53 1.47 1.47 1.47 1.48 1.48 1.48 1.47 1.51 1.57 1.60 1.61 1.60 1.56 1.52 1.48 1.44 1.39 1.36 1.33 1.33 1.32 1.30 1.29 1.30 1.30 1.29 1.27 1.17 1.07 1.07 1.09 1.09 1.10 1.07 1.05 1.04 1.05 1.03 0.98 0.97 1.01 1.05 1.09 1.10 1.11 1.09 1.09 1.04 1.01 1.00 0.97 0.94 0.94 0.95 0.93 0.93 0.95 0.98 0.95 0.93 0.88 0.85 0.83 0.81 0.79 0.78 0.77
1.45 1.51 1.57 1.61 1.62 1.62 1.58 1.52 1.48 1.46 1.45 1.47 1.58 1.60 1.61 1.57 1.54 1.49 1.46 1.46 1.46 1.47 1.49 1.52 1.54 1.60 1.63 1.64 1.62 1.56 1.49 1.44 1.40 1.35 1.33 1.31 1.31 1.31 1.31 1.30 1.32 1.36 1.37 1.29 1.27 1.27 1.17 1.09 1.10 1.12 1.10 1.09 1.09 1.07 1.06 1.02 0.97 0.96 1.01 1.07 1.09 1.09 1.09 1.09 1.07 1.04 1.01 1.02 0.99 0.96 0.95 0.94 0.90 0.93 0.95 0.95 0.96 0.96 0.93 0.87 0.84 0.82 0.80 0.78 0.77
1.50 1.52 1.57 1.58 1.60 1.61 1.59 1.51 1.43 1.46 1.45 1.47 1.57 1.63 1.58 1.54 1.49 1.47 1.47 1.45 1.46 1.49 1.53 1.57 1.61 1.64 1.64 1.62 1.55 1.47 1.41 1.36 1.33 1.30 1.28 1.27 1.27 1.27 1.28 1.30 1.32 1.35 1.37 1.29 1.24 1.24 1.21 1.15 1.07 1.06 1.08 1.07 1.07 1.08 1.06 1.02 0.99 0.98 1.03 1.07 1.10 1.09 1.10 1.10 1.07 1.04 1.02 1.02 1.02 1.00 0.99 0.97 0.95 0.94 0.94 0.93 0.93 0.92 0.94 0.92 0.85 0.82 0.78 0.77 0.75
1.49 1.52 1.51 1.53 1.58 1.58 1.54 1.49 1.43 1.45 1.46 1.45 1.47 1.53 1.50 1.47 1.44 1.44 1.43 1.47 1.50 1.53 1.57 1.62 1.64 1.64 1.60 1.53 1.44 1.37 1.35 1.35 1.32 1.30 1.30 1.30 1.30 1.30 1.31 1.32 1.34 1.34 1.37 1.26 1.21 1.16 1.11 1.11 1.09 1.03 1.01 1.04 1.06 1.07 1.07 1.06 1.04 1.03 1.05 1.06 1.08 1.08 1.09 1.10 1.08 1.05 1.03 1.03 1.01 1.01 1.01 1.02 0.99 0.98 0.97 0.95 0.93 0.92 0.93 0.90 0.87 0.84 0.82 0.78 0.74
1.47 1.48 1.47 1.52 1.52 1.55 1.53 1.50 1.46 1.44 1.46 1.39 1.42 1.48 1.48 1.47 1.48 1.47 1.48 1.51 1.53 1.56 1.60 1.63 1.61 1.56 1.49 1.43 1.41 1.42 1.42 1.39 1.37 1.36 1.36 1.36 1.35 1.34 1.34 1.35 1.36 1.38 1.35 1.30 1.22 1.14 1.08 1.06 1.06 1.06 1.05 1.01 1.03 1.07 1.08 1.07 1.06 1.06 1.06 1.07 1.08 1.09 1.08 1.08 1.08 1.06 1.04 1.04 1.02 1.01 1.01 1.02 1.04 1.00 0.96 0.94 0.91 0.92 0.93 0.90 0.90 0.86 0.83 0.81 0.78
1.45 1.45 1.49 1.48 1.48 1.52 1.52 1.52 1.46 1.44 1.42 1.40 1.48 1.51 1.51 1.52 1.51 1.50 1.54 1.54 1.54 1.56 1.59 1.58 1.54 1.50 1.47 1.47 1.48 1.48 1.46 1.43 1.41 1.40 1.40 1.39 1.39 1.35 1.34 1.35 1.38 1.37 1.40 1.36 1.25 1.18 1.14 1.10 1.08 1.07 1.06 1.04 1.00 1.00 1.04 1.05 1.05 1.07 1.09 1.10 1.11 1.12 1.10 1.08 1.06 1.06 1.05 1.06 1.06 1.03 1.02 1.02 1.05 1.04 1.01 0.97 0.94 0.93 0.91 0.91 0.90 0.88 0.86 0.82 0.77
1.40 1.42 1.42 1.43 1.46 1.45 1.46 1.48 1.47 1.42 1.39 1.44 1.52 1.53 1.51 1.54 1.56 1.56 1.59 1.57 1.55 1.57 1.57 1.55 1.52 1.49 1.49 1.49 1.48 1.47 1.43 1.42 1.39 1.40 1.40 1.40 1.39 1.39 1.35 1.36 1.37 1.40 1.40 1.36 1.27 1.23 1.23 1.19 1.13 1.10 1.09 1.08 1.04 1.02 1.02 1.02 1.02 1.06 1.11 1.13 1.13 1.15 1.13 1.12 1.08 1.05 1.05 1.05 1.08 1.07 1.04 1.04 1.06 1.05 1.03 0.97 0.97 0.94 0.92 0.91 0.90 0.89 0.88 0.83 0.82
1.34 1.38 1.38 1.41 1.43 1.41 1.39 1.42 1.43 1.42 1.43 1.43 1.46 1.48 1.52 1.52 1.55 1.58 1.58 1.57 1.56 1.55 1.52 1.50 1.48 1.49 1.50 1.51 1.47 1.47 1.45 1.43 1.42 1.43 1.40 1.41 1.36 1.35 1.35 1.37 1.39 1.40 1.43 1.37 1.28 1.26 1.26 1.25 1.21 1.17 1.13 1.07 1.03 1.01 1.01 1.03 1.02 1.03 1.09 1.14 1.15 1.17 1.16 1.14 1.12 1.09 1.06 1.05 1.05 1.07 1.06 1.06 1.06 1.05 1.03 1.01 0.97 0.95 0.93 0.91 0.89 0.89 0.90 0.89 0.85
1.26 1.31 1.39 1.43 1.40 1.39 1.38 1.45 1.45 1.42 1.36 1.40 1.47 1.51 1.58 1.59 1.65 1.66 1.64 1.59 1.55 1.51 1.50 1.51 1.52 1.53 1.52 1.47 1.47 1.45 1.44 1.44 1.44 1.43 1.41 1.38 1.35 1.34 1.37 1.39 1.40 1.41 1.43 1.41 1.35 1.31 1.30 1.25 1.24 1.24 1.21 1.17 1.12 1.08 1.02 0.99 1.02 1.05 1.08 1.10 1.13 1.15 1.17 1.16 1.14 1.12 1.08 1.08 1.07 1.07 1.06 1.08 1.10 1.06 1.03 1.00 0.98 0.96 0.94 0.92 0.92 0.92 0.93 0.91 0.87
1.23 1.29 1.37 1.41 1.41 1.39 1.45 1.47 1.43 1.44 1.45 1.51 1.56 1.63 1.62 1.60 1.57 1.66 1.63 1.62 1.60 1.58 1.57 1.57 1.56 1.56 1.51 1.47 1.48 1.49 1.47 1.46 1.47 1.44 1.41 1.38 1.36 1.36 1.37 1.37 1.38 1.43 1.46 1.45 1.40 1.37 1.35 1.32 1.29 1.25 1.24 1.22 1.19 1.15 1.13 1.11 1.06 1.03 1.08 1.12 1.11 1.13 1.16 1.17 1.16 1.15 1.11 1.11 1.09 1.07 1.07 1.08 1.10 1.07 1.05 1.01 0.98 0.96 0.96 0.95 0.95 0.95 0.95 0.91 0.87
1.25 1.33 1.36 1.44 1.45 1.44 1.51 1.51 1.47 1.44 1.46 1.56 1.60 1.63 1.64 1.61 1.65 1.66 1.64 1.66 1.66 1.60 1.56 1.56 1.53 1.50 1.49 1.50 1.52 1.53 1.51 1.49 1.49 1.47 1.42 1.42 1.39 1.39 1.38 1.38 1.39 1.43 1.46 1.46 1.45 1.43 1.41 1.39 1.35 1.31 1.26 1.25 1.23 1.18 1.13 1.12 1.14 1.13 1.10 1.10 1.11 1.12 1.12 1.14 1.15 1.15 1.14 1.12 1.10 1.08 1.10 1.10 1.11 1.07 1.04 1.02 0.99 0.97 0.98 0.98 0.95 0.94 0.94 0.91 0.87
1.29 1.38 1.41 1.43 1.45 1.46 1.52 1.52 1.48 1.51 1.53 1.60 1.55 1.62 1.68 1.69 1.67 1.66 1.65 1.61 1.57 1.57 1.54 1.55 1.52 1.51 1.52 1.51 1.52 1.51 1.51 1.50 1.49 1.46 1.43 1.42 1.39 1.38 1.37 1.37 1.40 1.40 1.45 1.47 1.50 1.50 1.50 1.45 1.40 1.35 1.31 1.27 1.22 1.19 1.17 1.14 1.15 1.16 1.16 1.16 1.11 1.12 1.12 1.12 1.13 1.14 1.15 1.15 1.14 1.10 1.12 1.12 1.13 1.09 1.05 1.02 0.99 0.97 1.00 0.99 0.97 0.96 0.94 0.92 0.89
1.35 1.34 1.36 1.42 1.44 1.45 1.48 1.46 1.43 1.41 1.48 1.54 1.48 1.63 1.64 1.56 1.58 1.57 1.53 1.55 1.55 1.54 1.51 1.52 1.52 1.48 1.48 1.49 1.51 1.47 1.44 1.43 1.44 1.42 1.39 1.38 1.35 1.35 1.36 1.37 1.38 1.41 1.42 1.46 1.46 1.49 1.50 1.47 1.41 1.35 1.31 1.29 1.23 1.22 1.20 1.19 1.17 1.18 1.19 1.22 1.18 1.13 1.12 1.12 1.11 1.10 1.13 1.15 1.17 1.12 1.14 1.12 1.14 1.11 1.09 1.05 1.00 0.98 0.99 0.99 0.98 0.96 0.95 0.93 0.92
1.28 1.33 1.38 1.40 1.43 1.44 1.47 1.48 1.43 1.42 1.44 1.50 1.51 1.58 1.59 1.57 1.54 1.49 1.45 1.46 1.51 1.45 1.43 1.47 1.46 1.45 1.45 1.46 1.40 1.39 1.37 1.36 1.36 1.38 1.35 1.36 1.33 1.34 1.33 1.36 1.38 1.40 1.45 1.45 1.46 1.48 1.48 1.43 1.38 1.32 1.31 1.28 1.24 1.21 1.18 1.20 1.21 1.18 1.19 1.22 1.26 1.23 1.19 1.14 1.12 1.11 1.11 1.13 1.15 1.13 1.15 1.16 1.16 1.12 1.10 1.08 1.04 0.99 1.01 0.99 0.99 0.99 0.94 0.93 0.93
1.31 1.33 1.34 1.36 1.41 1.45 1.54 1.51 1.50 1.45 1.48 1.55 1.52 1.55 1.55 1.51 1.48 1.47 1.45 1.44 1.41 1.37 1.37 1.39 1.40 1.40 1.40 1.39 1.37 1.33 1.31 1.30 1.30 1.31 1.31 1.31 1.27 1.29 1.32 1.33 1.37 1.39 1.43 1.42 1.40 1.43 1.44 1.39 1.36 1.33 1.32 1.31 1.27 1.26 1.25 1.23 1.21 1.19 1.18 1.21 1.24 1.25 1.25 1.23 1.20 1.15 1.12 1.11 1.12 1.12 1.15 1.17 1.16 1.12 1.08 1.08 1.06 1.01 1.01 1.01 1.01 1.01 0.96 0.97 0.99
1.30 1.32 1.35 1.37 1.40 1.44 1.42 1.35 1.43 1.49 1.51 1.49 1.42 1.49 1.49 1.47 1.44 1.41 1.39 1.39 1.37 1.37 1.36 1.37 1.35 1.36 1.36 1.35 1.34 1.30 1.29 1.28 1.27 1.29 1.30 1.26 1.25 1.25 1.29 1.31 1.35 1.37 1.39 1.40 1.43 1.41 1.40 1.36 1.33 1.33 1.34 1.35 1.33 1.30 1.30 1.24 1.22 1.20 1.17 1.18 1.18 1.20 1.24 1.26 1.26 1.22 1.16 1.13 1.14 1.14 1.13 1.16 1.16 1.13 1.08 1.06 1.06 1.01 1.02 1.01 1.01 1.02 0.99 0.97 0.99
1.32 1.37 1.39 1.41 1.49 1.53 1.40 1.36 1.42 1.48 1.47 1.43 1.41 1.45 1.44 1.39 1.37 1.35 1.34 1.34 1.31 1.31 1.32 1.31 1.31 1.31 1.32 1.35 1.37 1.35 1.28 1.29 1.34 1.37 1.31 1.27 1.29 1.29 1.27 1.29 1.31 1.36 1.38 1.38 1.42 1.40 1.36 1.31 1.33 1.32 1.34 1.36 1.32 1.31 1.27 1.22 1.19 1.20 1.19 1.18 1.17 1.14 1.17 1.21 1.22 1.22 1.21 1.17 1.17 1.18 1.15 1.15 1.14 1.13 1.09 1.06 1.05 1.04 1.02 0.99 0.97 1.01 1.01 0.98 0.96
1.43 1.40 1.45 1.46 1.45 1.47 1.39 1.41 1.48 1.48 1.45 1.34 1.36 1.38 1.38 1.32 1.32 1.32 1.31 1.29 1.27 1.28 1.27 1.28 1.28 1.30 1.34 1.39 1.38 1.33 1.33 1.39 1.39 1.37 1.36 1.34 1.34 1.30 1.29 1.29 1.31 1.36 1.39 1.38 1.41 1.37 1.33 1.34 1.36 1.36 1.39 1.39 1.34 1.33 1.27 1.21 1.19 1.19 1.19 1.18 1.19 1.15 1.12 1.14 1.16 1.19 1.23 1.18 1.16 1.20 1.24 1.20 1.15 1.14 1.10 1.07 1.04 1.05 1.03 0.99 0.92 1.00 0.99 0.94 0.93
1.42 1.39 1.40 1.42 1.42 1.38 1.41 1.48 1.41 1.42 1.41 1.32 1.31 1.31 1.29 1.28 1.29 1.30 1.27 1.29 1.26 1.25 1.25 1.26 1.28 1.30 1.32 1.32 1.21 1.24 1.32 1.35 1.30 1.36 1.38 1.36 1.33 1.32 1.33 1.33 1.31 1.35 1.39 1.40 1.41 1.43 1.40 1.38 1.40 1.42 1.43 1.41 1.37 1.33 1.29 1.24 1.20 1.20 1.18 1.17 1.19 1.17 1.14 1.15 1.15 1.19 1.23 1.21 1.15 1.19 1.26 1.29 1.23 1.19 1.14 1.11 1.07 1.03 1.04 1.03 0.97 0.94 0.96 0.96 0.93
1.38 1.30 1.34 1.28 1.30 1.36 1.42 1.39 1.40 1.41 1.37 1.30 1.27 1.26 1.25 1.26 1.26 1.25 1.25 1.26 1.25 1.24 1.21 1.21 1.24 1.25 1.27 1.31 1.26 1.31 1.34 1.33 1.31 1.32 1.38 1.34 1.36 1.32 1.32 1.35 1.37 1.37 1.39 1.42 1.44 1.44 1.43 1.42 1.39 1.42 1.39 1.38 1.36 1.28 1.27 1.26 1.21 1.20 1.21 1.18 1.19 1.18 1.18 1.15 1.15 1.18 1.21 1.22 1.20 1.20 1.27 1.29 1.32 1.30 1.26 1.24 1.23 1.17 1.12 1.08 1.03 0.96 0.93 0.96 0.92
1.27 1.28 1.27 1.25 1.33 1.38 1.41 1.40 1.41 1.37 1.32 1.28 1.27 1.25 1.26 1.26 1.26 1.24 1.22 1.22 1.20 1.16 1.16 1.18 1.22 1.28 1.30 1.31 1.34 1.36 1.35 1.35 1.37 1.34 1.32 1.31 1.30 1.30 1.30 1.32 1.36 1.38 1.39 1.41 1.40 1.39 1.39 1.40 1.39 1.39 1.36 1.34 1.30 1.27 1.24 1.21 1.21 1.21 1.20 1.20 1.19 1.20 1.21 1.20 1.20 1.21 1.25 1.25 1.27 1.24 1.26 1.30 1.30 1.29 1.29 1.25 1.24 1.23 1.18 1.13 1.06 1.02 0.98 0.94 0.94
1.23 1.19 1.14 1.26 1.35 1.37 1.41 1.40 1.42 1.36 1.29 1.26 1.25 1.24 1.24 1.24 1.21 1.20 1.18 1.15 1.13 1.10 1.11 1.14 1.18 1.23 1.26 1.27 1.30 1.30 1.28 1.29 1.32 1.34 1.37 1.30 1.28 1.30 1.33 1.34 1.37 1.37 1.37 1.41 1.42 1.40 1.38 1.37 1.39 1.35 1.32 1.29 1.27 1.25 1.24 1.23 1.22 1.19 1.21 1.23 1.22 1.24 1.25 1.24 1.24 1.24 1.26 1.28 1.30 1.28 1.30 1.30 1.28 1.27 1.26 1.28 1.26 1.23 1.21 1.20 1.13 1.08 1.04 1.01 0.99
1.14 1.14 1.19 1.32 1.31 1.37 1.43 1.41 1.41 1.32 1.26 1.26 1.25 1.22 1.21 1.19 1.17 1.14 1.11 1.10 1.07 1.03 1.03 1.02 1.04 1.10 1.10 1.11 1.15 1.20 1.23 1.26 1.30 1.37 1.37 1.29 1.27 1.29 1.32 1.34 1.34 1.34 1.36 1.40 1.42 1.38 1.35 1.33 1.35 1.33 1.22 1.19 1.20 1.21 1.26 1.24 1.24 1.22 1.25 1.27 1.27 1.27 1.27 1.28 1.30 1.29 1.31 1.31 1.31 1.33 1.35 1.38 1.35 1.33 1.29 1.27 1.26 1.26 1.23 1.22 1.23 1.19 1.14 1.08 1.05
1.15 1.20 1.23 1.28 1.30 1.36 1.41 1.41 1.32 1.23 1.22 1.21 1.21 1.19 1.16 1.12 1.10 1.09 1.06 1.04 0.99 0.98 0.97 1.00 1.00 0.97 1.05 1.06 1.08 1.13 1.17 1.24 1.28 1.28 1.27 1.28 1.31 1.29 1.31 1.31 1.31 1.30 1.33 1.37 1.37 1.38 1.32 1.26 1.26 1.30 1.28 1.22 1.22 1.21 1.23 1.23 1.22 1.22 1.24 1.25 1.27 1.28 1.28 1.30 1.31 1.33 1.34 1.30 1.30 1.29 1.30 1.33 1.39 1.36 1.40 1.41 1.36 1.30 1.27 1.25 1.25 1.25 1.25 1.21 1.17
1.20 1.24 1.24 1.27 1.27 1.34 1.40 1.37 1.25 1.20 1.18 1.17 1.14 1.11 1.11 1.10 1.07 1.06 1.05 1.00 0.98 0.97 0.97 0.98 0.97 0.97 0.98 0.97 1.02 1.06 1.10 1.12 1.17 1.21 1.23 1.26 1.27 1.27 1.28 1.28 1.27 1.27 1.29 1.33 1.34 1.37 1.33 1.26 1.23 1.32 1.32 1.28 1.22 1.19 1.17 1.20 1.21 1.21 1.23 1.24 1.26 1.28 1.28 1.30 1.31 1.32 1.32 1.30 1.30 1.28 1.29 1.32 1.35 1.35 1.37 1.42 1.45 1.44 1.39 1.34 1.31 1.30 1.28 1.27 1.26
1.19 1.25 1.25 1.25 1.30 1.30 1.39 1.35 1.21 1.15 1.16 1.14 1.12 1.10 1.09 1.07 1.07 1.04 1.01 0.98 0.96 0.95 0.98 0.94 0.93 0.92 0.90 0.89 0.90 0.91 0.95 1.03 1.07 1.11 1.13 1.16 1.18 1.22 1.25 1.27 1.28 1.27 1.28 1.28 1.28 1.30 1.30 1.30 1.25 1.26 1.28 1.25 1.20 1.17 1.16 1.20 1.19 1.19 1.19 1.21 1.25 1.25 1.28 1.31 1.32 1.31 1.31 1.31 1.33 1.33 1.33 1.31 1.32 1.35 1.37 1.35 1.37 1.39 1.43 1.43 1.40 1.38 1.37 1.33 1.32
1.19 1.25 1.19 1.20 1.25 1.28 1.35 1.30 1.19 1.18 1.15 1.11 1.08 1.05 1.02 0.98 0.93 0.95 0.92 0.90 0.89 0.90 0.92 0.91 0.89 0.85 0.82 0.80 0.79 0.79 0.82 0.88 0.95 1.02 1.05 1.07 1.08 1.12 1.16 1.20 1.22 1.22 1.20 1.19 1.23 1.25 1.26 1.28 1.27 1.22 1.18 1.20 1.25 1.21 1.25 1.23 1.19 1.16 1.14 1.19 1.23 1.25 1.24 1.26 1.28 1.29 1.30 1.33 1.33 1.36 1.34 1.34 1.32 1.33 1.33 1.36 1.39 1.37 1.40 1.45 1.46 1.44 1.43 1.41 1.37
1.09 1.15 1.14 1.11 1.17 1.23 1.27 1.19 1.15 1.17 1.10 1.01 0.99 0.96 0.89 0.88 0.90 0.86 0.80 0.83 0.83 0.86 0.85 0.85 0.86 0.83 0.81 0.78 0.75 0.75 0.77 0.81 0.85 0.88 0.92 0.97 1.01 1.06 1.10 1.13 1.16 1.15 1.14 1.16 1.21 1.22 1.26 1.30 1.29 1.26 1.19 1.19 1.18 1.22 1.27 1.30 1.19 1.11 1.12 1.12 1.16 1.24 1.26 1.25 1.23 1.25 1.27 1.30 1.34 1.33 1.35 1.35 1.37 1.36 1.38 1.37 1.33 1.33 1.36 1.41 1.40 1.41 1.44 1.44 1.44
1.00 1.02 1.06 1.08 1.13 1.22 1.25 1.19 1.14 1.12 1.08 1.02 0.96 0.95 0.93 0.88 0.82 0.80 0.79 0.80 0.80 0.78 0.75 0.79 0.81 0.81 0.79 0.74 0.72 0.73 0.76 0.78 0.82 0.84 0.84 0.84 0.85 0.91 0.99 1.04 1.10 1.12 1.12 1.15 1.18 1.21 1.25 1.27 1.27 1.21 1.26 1.22 1.18 1.25 1.25 1.22 1.13 1.05 1.01 1.02 1.05 1.13 1.19 1.21 1.20 1.21 1.24 1.27 1.28 1.28 1.30 1.31 1.33 1.38 1.40 1.40 1.35 1.31 1.29 1.35 1.42 1.43 1.39 1.39 1.43
1.01 0.98 1.00 1.05 1.09 1.16 1.20 1.16 1.13 1.10 1.05 1.01 0.95 0.92 0.93 0.92 0.87 0.82 0.80 0.76 0.83 0.83 0.80 0.79 0.80 0.77 0.76 0.75 0.74 0.73 0.73 0.75 0.78 0.79 0.78 0.80 0.80 0.82 0.87 0.96 1.02 1.06 1.04 1.06 1.10 1.14 1.19 1.21 1.23 1.17 1.14 1.21 1.21 1.28 1.25 1.23 1.08 1.13 1.13 1.01 0.92 0.88 1.03 1.08 1.17 1.19 1.21 1.23 1.24 1.22 1.24 1.27 1.30 1.34 1.37 1.37 1.38 1.39 1.38 1.38 1.40 1.45 1.42 1.40 1.42
1.02 0.99 0.95 0.96 1.04 1.08 1.13 1.16 1.14 1.14 1.08 1.00 0.94 0.95 0.96 0.93 0.92 0.87 0.83 0.79 0.75 0.80 0.80 0.78 0.75 0.73 0.69 0.71 0.71 0.71 0.70 0.72 0.75 0.75 0.74 0.74 0.74 0.73 0.78 0.84 0.91 0.98 0.98 0.98 1.02 1.05 1.11 1.13 1.15 1.16 1.11 1.03 1.06 1.10 1.18 1.16 1.13 1.08 0.91 0.90 0.90 0.87 0.80 0.91 1.00 1.14 1.21 1.21 1.21 1.22 1.24 1.24 1.28 1.32 1.36 1.31 1.36 1.41 1.44 1.42 1.39 1.42 1.40 1.39 1.38
1.00 0.99 0.94 0.91 0.97 1.05 1.14 1.17 1.15 1.12 1.11 1.00 0.93 0.93 0.92 0.90 0.89 0.85 0.82 0.77 0.78 0.75 0.72 0.69 0.71 0.70 0.69 0.67 0.63 0.67 0.67 0.66 0.68 0.69 0.70 0.70 0.72 0.71 0.72 0.76 0.81 0.87 0.92 0.93 0.96 0.99 1.03 1.05 1.05 1.02 1.00 0.95 0.93 0.98 1.07 1.14 1.14 1.21 1.03 0.89 0.85 0.79 0.80 0.91 0.98 1.04 1.16 1.14 1.18 1.19 1.21 1.22 1.24 1.28 1.30 1.33 1.37 1.40 1.42 1.43 1.41 1.43 1.41 1.36 1.39
1.03 1.03 1.03 0.97 0.97 1.04 1.13 1.17 1.16 1.14 1.09 1.02 0.93 0.91 0.89 0.84 0.78 0.72 0.66 0.65 0.62 0.63 0.60 0.61 0.64 0.66 0.63 0.64 0.65 0.67 0.66 0.63 0.65 0.68 0.69 0.69 0.70 0.71 0.72 0.72 0.76 0.82 0.84 0.85 0.87 0.89 0.91 0.94 0.97 0.98 0.96 0.99 0.95 0.94 0.95 1.10 1.12 1.11 1.10 1.07 1.04 0.88 0.92 0.99 0.93 0.82 1.10 1.13 1.16 1.19 1.20 1.22 1.24 1.25 1.28 1.30 1.34 1.37 1.40 1.39 1.41 1.44 1.45 1.48 1.48
1.06 1.04 1.00 0.97 0.95 0.98 1.04 1.11 1.14 1.12 1.11 1.05 0.94 0.90 0.86 0.84 0.78 0.70 0.66 0.63 0.60 0.62 0.65 0.68 0.67 0.68 0.69 0.65 0.65 0.69 0.68 0.67 0.66 0.68 0.67 0.70 0.72 0.74 0.77 0.79 0.80 0.81 0.81 0.80 0.77 0.77 0.80 0.81 0.85 0.90 0.94 0.93 0.93 0.85 0.87 0.95 1.03 1.06 1.08 1.13 1.11 1.09 1.10 0.96 0.84 0.90 0.79 0.92 1.01 1.06 1.12 1.18 1.21 1.22 1.23 1.26 1.28 1.28 1.31 1.34 1.35 1.35 1.39 1.43 1.45
1.05 1.02 0.98 0.98 0.97 0.97 0.99 1.04 1.11 1.13 1.13 1.10 0.95 0.90 0.83 0.81 0.74 0.68 0.68 0.65 0.64 0.63 0.66 0.66 0.70 0.70 0.69 0.67 0.69 0.70 0.70 0.70 0.68 0.69 0.72 0.73 0.74 0.74 0.78 0.79 0.79 0.80 0.81 0.79 0.77 0.79 0.79 0.80 0.81 0.82 0.83 0.87 0.89 0.84 0.84 0.89 0.84 0.91 1.02 1.01 1.01 1.10 1.12 1.05 1.02 0.90 0.84 0.77 0.83 1.00 1.05 1.10 1.14 1.18 1.24 1.30 1.35 1.35 1.32 1.36 1.36 1.35 1.33 1.36 1.40
1.04 1.00 0.97 0.96 0.99 1.04 1.08 1.11 1.13 1.16 1.16 1.13 0.98 0.89 0.85 0.79 0.72 0.67 0.65 0.66 0.69 0.69 0.68 0.67 0.66 0.70 0.68 0.68 0.69 0.70 0.70 0.68 0.67 0.70 0.73 0.72 0.72 0.73 0.75 0.76 0.78 0.79 0.79 0.78 0.78 0.78 0.77 0.76 0.77 0.79 0.79 0.82 0.83 0.84 0.83 0.83 0.85 0.84 0.87 0.89 0.93 0.93 0.97 1.02 1.02 1.00 0.89 0.79 0.78 0.82 0.86 0.99 1.03 1.08 1.13 1.22 1.29 1.32 1.28 1.30 1.34 1.35 1.35 1.37 1.39
1.08 1.05 1.03 1.04 1.05 1.05 1.08 1.11 1.13 1.15 1.16 1.12 0.99 0.87 0.84 0.79 0.72 0.69 0.66 0.66 0.70 0.70 0.67 0.62 0.63 0.69 0.66 0.67 0.69 0.68 0.67 0.65 0.67 0.70 0.69 0.69 0.67 0.67 0.68 0.71 0.75 0.76 0.76 0.75 0.74 0.73 0.74 0.76 0.79 0.81 0.83 0.82 0.86 0.88 0.85 0.86 0.88 0.89 0.91 0.98 0.91 0.93 0.94 1.02 0.99 0.99 0.95 0.89 0.77 0.79 0.84 0.83 0.81 0.93 1.06 1.08 1.13 1.19 1.23 1.25 1.24 1.24 1.25 1.27 1.29
1.08 1.07 1.06 1.08 1.08 1.09 1.11 1.10 1.11 1.12 1.12 1.08 0.97 0.82 0.81 0.79 0.74 0.72 0.70 0.68 0.70 0.69 0.64 0.61 0.62 0.65 0.64 0.65 0.67 0.65 0.65 0.65 0.68 0.68 0.67 0.66 0.64 0.62 0.60 0.63 0.68 0.70 0.65 0.56 0.49 0.49 0.56 0.61 0.65 0.68 0.71 0.74 0.77 0.79 0.82 0.87 0.89 0.90 0.93 0.96 0.93 0.93 0.92 0.89 0.92 0.94 0.90 0.84 0.83 0.82 0.84 0.84 0.82 0.82 0.92 0.99 1.01 1.03 1.06 1.10 1.08 1.07 1.08 1.11 1.14
Wind_Speed
12 12 11 11 10 9 9 8 8 7 6 6 5 4 3 3 3 3 4 4 4 3 3 3 2 2 2 2 3 3 3 3 2 2 1 1 0 0 1 2 3 3 3 4 4 4 4 5 4 4 4 4 4 4 5 5 5 6 6 7 8 8 8 8 8 7 8 9 9 10 10 10 10 11 10 10 11 11 11 11 11 11 11 11 11
11 12 11 11 10 10 9 8 8 7 7 6 5 4 4 3 4 4 5 5 5 4 3 3 2 2 2 2 2 2 2 2 2 2 1 0 0 1 1 2 3 3 4 4 4 4 5 5 5 5 5 4 5 4 5 5 5 6 6 7 7 8 8 8 7 7 8 9 9 10 10 10 10 10 10 10 10 11 11 11 11 11 11 11 11
11 11 11 11 10 10 9 9 8 8 7 6 6 5 5 4 4 5 5 6 5 5 4 3 3 2 2 1 0 1 1 2 2 2 1 0 1 1 2 2 3 4 4 4 4 5 5 5 5 5 5 5 5 5 5 5 5 5 6 6 7 7 7 7 7 7 8 8 9 10 10 10 10 10 10 10 10 10 10 11 11 11 12 12 12
11 11 11 11 11 10 10 10 9 9 8 7 6 6 6 5 5 5 6 6 6 5 4 4 3 2 2 1 1 1 1 1 2 2 1 0 1 2 2 3 3 4 4 5 5 5 5 5 6 6 6 6 5 5 5 5 4 5 5 6 6 6 6 6 7 7 7 8 9 9 10 10 10 10 10 10 10 10 10 10 11 11 12 12 13
11 11 11 11 11 11 11 10 10 9 9 8 7 6 6 6 6 6 6 6 6 5 5 4 3 3 2 2 2 1 1 1 1 1 2 1 1 1 2 2 3 4 5 5 6 6 6 6 6 6 6 6 6 6 6 5 5 5 5 5 6 6 6 6 6 7 7 8 8 9 9 9 9 9 9 9 10 10 10 10 10 11 11 12 13
11 11 11 11 11 11 11 10 10 10 10 9 8 7 7 6 7 7 7 7 6 6 5 5 3 3 3 2 2 2 1 1 1 1 1 1 1 1 2 2 3 4 5 6 6 6 6 6 7 7 7 7 7 6 6 5 5 5 5 5 5 5 5 6 6 6 7 7 8 8 9 9 9 9 9 9 9 9 9 10 10 10 11 11 12
10 11 11 11 11 11 11 10 10 10 10 9 8 8 7 7 7 8 8 8 7 6 6 5 4 4 3 3 2 2 2 1 1 1 1 1 1 1 2 2 3 4 5 6 6 6 7 7 7 7 7 7 7 7 7 6 5 5 5 4 4 4 4 5 5 5 6 6 7 7 8 8 8 8 8 8 8 9 9 9 9 10 10 11 12
10 10 10 11 11 11 11 11 11 11 10 10 9 8 8 8 8 9 9 9 8 7 6 6 5 4 4 3 3 3 2 2 1 1 1 1 2 1 2 2 3 4 5 5 6 7 7 7 7 8 8 8 8 8 7 7 6 5 5 4 4 4 4 4 4 5 5 5 6 6 7 7 7 8 8 8 8 8 8 8 9 9 10 10 11
10 10 11 11 11 11 11 11 11 11 10 10 10 9 9 8 9 9 10 9 8 8 7 6 6 5 4 4 4 4 3 3 2 2 2 2 2 2 2 2 3 4 5 5 6 7 7 8 8 8 8 8 9 9 8 7 7 6 5 4 3 3 3 3 3 4 4 5 5 5 6 6 6 7 7 7 7 8 8 8 8 9 9 10 11
10 10 11 11 11 11 11 11 11 11 11 11 10 10 9 9 9 10 10 9 8 8 8 7 7 6 5 5 5 4 4 3 3 2 2 2 2 3 2 3 3 4 4 5 6 7 8 8 8 8 9 9 9 9 9 8 7 7 6 5 4 3 3 3 3 3 4 4 5 5 5 5 5 6 6 6 7 7 7 7 8 8 9 9 10
10 11 11 11 11 11 11 12 12 12 11 11 11 11 11 10 10 10 10 10 9 9 9 8 8 7 6 6 6 5 5 4 4 3 3 3 3 3 3 3 3 4 4 5 6 7 8 8 9 9 9 10 10 10 9 9 8 8 7 6 5 4 3 3 2 3 3 3 4 4 4 4 5 5 6 6 6 6 7 7 7 8 8 9 9
11 11 11 11 11 11 12 12 12 12 12 12 12 12 11 11 11 10 11 10 10 10 9 9 8 8 7 7 7 6 6 5 4 4 3 3 3 3 3 3 4 4 4 5 6 7 8 8 9 10 10 10 10 10 10 9 9 9 8 7 6 5 5 4 3 3 3 3 3 4 4 4 4 5 5 5 6 6 6 6 7 7 8 8 8
11 11 11 11 11 11 12 12 12 12 12 12 13 12 12 11 11 11 11 10 10 10 10 9 9 9 8 8 7 6 6 5 5 4 4 4 4 4 4 4 4 4 4 5 5 7 8 9 9 10 11 11 11 11 10 10 10 10 9 8 8 7 6 5 4 4 3 3 3 3 3 3 4 4 4 5 5 5 5 5 6 6 7 7 8
10 10 11 11 11 11 12 12 12 13 13 13 13 12 12 12 12 11 11 11 11 11 10 10 10 9 9 8 7 6 6 5 5 5 4 4 4 4 4 4 4 5 5 5 6 7 8 9 9 10 11 12 12 12 12 11 11 10 10 9 9 8 7 7 6 5 4 4 4 4 3 3 3 3 3 4 4 4 4 5 5 5 6 6 7
11 11 11 12 12 12 12 12 13 13 13 13 13 13 13 13 12 12 11 11 11 11 10 10 10 10 9 8 7 6 6 6 5 5 5 4 4 4 5 5 5 5 5 6 6 7 8 9 10 11 11 12 12 12 12 12 12 12 11 10 10 9 9 8 7 6 5 5 4 4 4 3 3 3 3 3 3 3 3 4 4 4 5 6 6
11 11 11 12 12 12 12 13 14 13 13 12 13 14 13 13 13 12 12 12 12 11 11 11 10 10 9 8 7 7 6 6 6 5 5 4 4 5 5 5 5 5 6 6 7 8 8 9 10 11 11 12 13 13 13 13 13 13 12 11 11 10 10 9 8 8 7 6 5 5 5 4 4 3 3 2 2 2 2 3 3 3 4 5 5
11 11 12 12 12 12 12 13 14 14 13 12 13 14 13 13 12 12 12 12 13 12 11 11 10 10 9 8 7 7 6 6 6 5 5 5 5 5 5 6 6 6 7 7 7 8 9 9 10 11 11 12 13 13 13 14 14 13 13 12 12 12 11 10 10 9 8 7 6 6 5 5 5 4 4 3 2 2 2 2 2 3 3 4 4
11 12 12 12 12 12 12 13 13 14 13 13 13 13 13 13 12 12 12 13 13 12 11 11 10 10 9 8 8 7 7 7 6 6 6 6 6 6 7 7 7 7 7 7 7 8 9 9 10 10 11 11 12 13 14 14 14 14 14 13 13 13 12 12 11 10 9 8 8 7 7 7 6 6 5 4 3 3 2 2 2 2 2 3 3
12 12 12 12 12 12 12 13 13 13 13 12 13 12 12 12 12 12 12 12 12 12 12 11 10 9 9 8 8 8 7 7 7 7 7 7 7 7 8 8 8 8 8 8 8 8 9 9 9 10 10 11 11 12 13 14 14 14 14 14 14 14 14 13 12 11 10 10 9 8 8 8 8 7 6 6 5 4 3 3 2 2 2 2 2
12 12 12 12 12 12 12 12 12 12 12 12 12 12 11 11 11 12 12 11 11 11 11 10 10 9 9 8 8 8 8 8 8 8 8 8 8 9 9 9 9 9 9 9 9 9 9 8 9 9 10 11 11 12 12 13 14 14 15 15 15 15 15 14 13 12 11 11 10 10 9 9 9 9 8 7 6 5 5 4 4 3 2 2 2
12 12 12 12 12 12 11 11 11 11 12 12 11 11 11 11 11 12 13 12 12 11 10 10 10 9 9 9 9 9 9 9 9 9 9 9 9 10 10 10 10 10 10 10 10 10 9 9 9 9 10 10 11 11 12 12 13 14 15 15 15 16 16 15 14 13 12 12 11 11 11 10 10 10 9 9 8 7 6 5 5 5 4 3 2
12 12 12 12 12 11 11 10 11 11 11 11 11 11 11 10 11 12 12 12 12 11 10 10 10 9 9 10 10 9 10 10 10 10 10 10 11 11 11 11 11 11 11 10 10 10 10 9 9 9 9 10 11 11 12 12 13 13 14 15 16 16 17 16 15 15 14 13 12 12 12 11 11 11 11 10 10 9 8 7 6 6 6 5 4
11 11 11 11 11 11 10 10 11 11 11 11 11 10 10 10 11 12 12 12 11 11 11 10 10 9 9 10 10 11 11 11 11 11 11 11 11 11 11 11 11 11 11 11 10 10 10 10 10 10 10 10 10 11 12 12 12 13 13 15 15 16 17 17 16 16 15 14 13 13 12 12 12 12 12 11 11 11 10 9 8 7 7 6 6
11 11 11 11 10 10 11 11 11 11 11 11 11 10 10 10 10 11 11 11 11 11 11 11 10 10 10 10 10 11 11 11 11 11 11 11 11 11 12 11 11 11 11 11 11 11 10 10 10 10 10 10 10 11 11 12 12 13 13 13 15 16 17 18 17 17 16 16 15 14 13 13 13 13 13 13 12 12 12 11 10 9 8 8 8
11 11 11 10 10 10 11 11 11 11 11 11 11 10 10 10 10 10 11 11 11 12 11 11 11 11 11 11 11 11 11 11 12 12 12 12 12 12 12 12 12 12 12 11 11 11 11 10 10 10 10 10 11 11 11 12 12 13 13 13 13 15 16 17 18 18 17 17 16 15 15 14 14 14 14 13 13 13 13 12 12 11 10 9 9
10 11 11 11 11 11 11 11 11 11 12 12 11 10 10 9 9 9 10 11 12 12 12 12 12 12 12 12 12 12 12 12 12 13 13 12 12 12 12 12 12 12 12 11 11 11 11 10 10 10 10 11 11 11 11 11 12 13 13 13 13 14 15 16 17 18 18 17 17 17 16 15 15 14 14 14 14 14 14 13 13 13 12 11 10
11 11 11 11 11 10 10 10 11 11 12 11 11 10 9 9 9 9 9 10 11 12 12 13 13 13 13 13 13 13 13 13 13 14 13 13 13 12 12 12 12 12 11 11 11 11 11 10 10 10 10 10 10 10 11 11 12 12 13 14 14 13 14 15 16 17 17 17 17 18 17 16 16 15 15 15 14 14 14 14 14 14 13 12 12
11 11 11 12 11 10 10 9 10 10 11 10 9 9 7 7 8 8 9 10 10 11 12 12 13 14 14 14 14 14 14 14 14 14 13 13 12 12 12 12 12 12 12 11 11 11 11 11 11 10 10 10 10 10 10 10 11 12 13 13 14 14 14 14 15 16 16 17 17 18 17 17 16 16 16 16 15 15 15 15 15 15 14 14 13
12 12 12 12 11 10 10 10 11 11 10 9 8 8 7 6 7 8 8 9 10 10 11 11 12 13 13 13 13 13 13 13 13 13 13 12 12 12 12 12 12 12 12 12 11 11 11 11 11 11 10 10 9 9 10 10 10 11 12 12 13 13 14 14 14 15 15 16 17 17 17 17 17 16 16 16 16 16 16 16 16 15 15 15 15
13 13 12 12 11 11 11 12 12 11 10 8 7 7 6 6 7 7 8 9 10 11 11 12 12 13 13 13 13 13 13 13 13 13 13 12 12 12 12 12 12 11 11 11 12 12 11 11 11 11 10 10 9 9 9 9 10 10 11 12 12 13 13 14 14 14 15 16 16 16 16 17 17 16 16 16 16 16 16 16 16 16 16 16 16
12 12 12 11 11 12 12 12 12 11 9 8 7 6 6 6 7 7 8 9 10 11 11 12 12 12 12 12 12 12 13 13 12 12 12 12 12 11 11 11 11 11 11 11 11 11 11 11 10 10 10 10 9 9 9 9 9 10 11 11 12 12 13 13 14 14 15 15 16 15 15 16 16 16 16 16 16 17 17 16 16 17 17 17 17
11 11 11 11 12 12 12 11 11 9 8 7 6 6 6 6 7 7 8 8 8 9 9 10 10 10 11 11 11 11 12 12 12 12 12 11 11 10 10 10 10 10 11 11 11 11 11 11 10 10 10 10 9 9 9 9 8 9 10 11 11 11 12 12 13 14 14 15 15 15 15 15 16 16 16 16 16 16 17 17 16 17 17 17 17
9 9 10 12 13 12 12 10 10 9 7 7 6 5 6 6 6 6 6 6 6 7 7 8 9 9 10 10 11 11 11 11 11 11 11 10 10 10 10 10 10 10 11 11 11 11 11 11 11 10 10 10 10 9 9 9 8 8 9 10 10 10 11 11 12 12 13 14 15 15 14 14 15 15 16 16 15 15 16 16 17 16 16 17 17
8 9 10 12 12 11 11 10 9 9 8 7 6 5 5 6 5 5 5 5 5 6 6 7 8 9 9 10 10 10 10 11 11 11 11 10 9 9 9 10 10 10 11 11 11 10 11 11 11 11 10 10 10 10 10 9 9 9 9 9 9 9 9 10 10 11 11 12 13 14 14 14 14 15 15 15 15 15 15 16 16 16 16 16 17
9 9 10 11 12 11 10 10 9 9 8 7 6 6 5 5 4 4 4 4 5 5 6 7 7 8 8 9 9 9 10 10 10 10 10 10 9 9 9 9 9 10 11 11 11 10 10 11 11 11 11 11 11 10 10 10 10 10 9 9 9 9 9 9 9 10 10 11 12 13 13 13 13 14 14 14 14 15 15 15 16 16 17 17 17
9 9 10 11 11 11 10 10 9 8 8 8 7 6 5 4 4 3 3 4 4 4 5 6 6 7 7 8 8 9 9 9 10 10 10 10 9 9 9 9 9 9 10 10 10 10 10 11 11 11 11 11 11 11 11 11 10 10 10 10 10 10 10 10 10 10 10 11 11 12 12 13 13 13 14 14 14 14 15 15 16 16 17 17 17
10 10 11 11 11 11 11 10 9 9 9 8 7 6 5 4 4 3 3 3 3 4 4 5 6 6 7 7 8 8 8 9 9 9 9 9 9 9 9 9 9 9 9 10 10 10 10 11 11 12 11 11 11 11 11 11 11 11 11 11 11 11 11 11 11 11 11 11 11 12 12 12 13 13 14 14 14 15 15 15 15 16 16 17 17
10 10 11 11 11 11 11 10 10 10 9 8 7 6 5 5 4 3 3 3 3 3 4 5 6 6 7 7 7 8 8 8 9 10 9 9 9 9 9 9 9 9 10 10 10 10 11 11 11 11 11 11 11 11 11 11 11 11 11 11 11 11 11 11 11 11 11 11 11 12 12 12 12 13 13 14 14 15 15 15 15 15 16 16 16
11 10 11 11 12 11 11 11 10 10 9 8 7 6 6 5 4 3 3 3 3 4 4 5 5 6 6 7 7 7 8 8 9 9 9 10 10 10 9 9 9 10 10 10 10 10 10 10 10 11 11 11 11 11 11 11 11 11 11 11 11 11 11 11 11 11 11 11 11 12 12 12 13 13 14 14 14 15 15 15 15 15 15 16 16
11 11 11 11 12 12 12 11 11 10 9 8 8 7 6 5 5 4 4 4 4 4 4 5 5 6 7 7 7 8 8 8 8 8 9 9 10 10 10 9 9 10 10 10 10 10 10 10 10 10 10 11 10 11 11 11 10 10 10 10 10 10 10 10 10 10 10 11 11 11 11 12 12 13 13 14 14 15 15 15 15 15 15 15 16
12 11 12 11 11 12 13 12 11 11 10 9 8 7 7 6 5 4 4 4 4 4 4 5 5 6 7 7 7 7 7 7 7 7 8 8 9 9 9 9 9 10 10 10 10 10 10 10 10 10 10 10 10 10 10 10 10 10 9 10 10 10 10 10 10 10 10 10 11 11 11 11 11 12 12 13 14 14 15 15 16 16 16 16 16
12 12 12 12 12 12 13 13 12 11 10 9 8 8 7 6 5 4 4 3 3 4 4 5 6 7 7 7 7 7 7 7 6 7 7 8 8 9 9 9 9 10 10 10 10 9 9 10 10 10 10 10 10 10 10 10 10 10 9 10 10 10 11 11 11 11 11 11 11 11 11 11 11 11 12 12 13 14 14 15 16 16 16 16 16
13 13 12 12 12 13 13 13 12 11 10 9 8 7 7 6 5 4 4 3 4 4 5 6 6 6 7 7 7 7 7 7 6 7 7 7 7 8 9 9 9 10 10 10 10 9 9 10 10 11 11 11 11 11 11 11 11 11 10 10 10 10 11 11 12 12 12 12 12 12 12 12 13 13 13 13 13 13 13 14 15 15 16 16 16
14 13 12 13 12 13 14 13 13 12 10 9 8 7 7 6 5 5 4 4 4 4 5 6 6 6 7 7 7 7 7 7 7 6 7 7 7 7 8 8 9 9 9 10 10 10 10 10 11 11 12 12 12 12 12 12 12 11 11 11 11 11 11 11 11 11 12 12 12 12 12 12 13 13 13 13 13 13 13 13 14 14 15 15 15
14 13 13 13 13 14 14 14 13 13 12 11 10 8 7 7 6 5 5 4 4 5 5 6 6 7 8 8 7 7 7 7 7 7 7 6 7 7 7 8 8 8 8 9 9 10 10 11 11 12 12 13 12 12 12 13 12 12 12 11 11 11 11 10 11 11 11 11 11 12 12 12 12 12 12 13 13 12 12 12 13 13 14 14 15
15 14 13 13 14 14 15 15 14 14 13 12 11 10 9 8 6 6 5 5 5 6 6 6 7 7 8 8 7 7 7 7 7 7 6 6 6 6 6 6 7 7 7 8 8 9 10 10 11 11 12 12 12 12 12 13 13 13 13 12 11 11 10 10 11 10 10 10 10 10 11 11 11 11 11 11 11 11 11 11 11 12 13 14 15
14 15 14 13 13 14 15 15 15 15 14 13 12 11 10 9 8 7 7 6 6 6 7 7 7 8 8 8 7 7 6 6 6 6 6 6 5 5 5 5 5 5 6 6 7 7 8 8 9 10 11 11 12 12 12 12 12 12 12 12 12 11 11 11 11 11 10 9 9 9 9 9 10 10 10 10 11 11 11 11 11 11 11 12 13
14 15 15 14 13 14 15 15 16 16 15 14 13 12 11 10 9 8 8 8 7 7 7 7 8 8 8 8 7 7 6 6 6 6 5 5 5 5 4 4 4 4 4 5 5 6 7 7 8 8 9 10 10 11 11 11 12 12 12 12 12 11 11 11 11 11 11 10 9 9 8 8 8 9 10 10 10 10 10 9 9 10 10 10 10
14 15 15 15 14 14 15 15 16 16 16 15 14 13 12 11 10 9 9 8 8 8 8 8 8 7 7 8 7 7 7 7 6 6 5 4 5 5 5 4 4 4 4 4 5 5 6 6 7 7 8 8 9 9 10 10 11 11 11 11 11 11 11 10 10 10 10 9 9 9 9 8 8 8 8 9 9 9 9 9 8 8 8 9 9
14 15 15 15 14 15 15 15 16 16 16 15 14 13 12 11 11 10 9 9 8 8 8 8 8 7 7 7 8 7 7 7 7 6 5 5 5 5 5 5 4 4 4 4 5 5 5 5 5 6 6 6 7 7 8 8 8 9 9 10 10 10 10 10 9 9 9 9 9 9 9 8 8 8 8 8 8 8 8 8 8 8 8 8 9
14 14 15 15 15 15 15 15 15 16 16 15 14 13 13 12 12 11 10 10 9 9 9 8 8 8 7 7 7 8 7 7 6 6 5 5 5 5 5 4 4 4 4 4 4 4 4 4 4 4 4 5 5 5 6 6 6 7 7 8 9 9 9 9 9 9 9 8 8 7 7 7 7 7 7 7 7 7 7 7 8 8 8 8 8
Wind_Direction
233 232 231 228 229 227 230 230 236 244 249 259 262 265 258 243 224 216 210 202 200 196 184 170 156 140 115 95 81 65 46 34 23 25 37 43 43 180 179 181 178 181 187 187 183 179 178 175 169 155 145 142 134 126 117 109 99 91 87 80 78 79 77 78 80 84 85 87 87 86 83 80 79 79 79 80 79 77 74 73 72 70 68 67 66
227 230 227 225 226 226 229 230 236 243 250 255 255 254 244 235 222 214 212 209 207 203 196 190 183 168 140 113 86 57 34 22 14 14 16 360 237 209 194 195 192 193 197 195 190 187 186 185 180 167 156 152 145 135 125 116 107 98 92 87 83 80 79 78 80 83 85 90 90 88 85 82 80 79 79 79 80 79 76 73 71 69 68 67 66
220 226 226 224 225 227 230 232 236 242 248 249 249 246 237 232 225 219 214 213 213 212 211 209 204 196 189 173 86 18 5 5 10 12 4 290 224 214 206 209 207 204 203 201 196 192 191 191 186 176 165 160 155 143 134 127 117 108 99 93 89 85 82 80 81 84 87 92 92 90 86 82 79 78 78 79 81 81 78 75 73 70 68 67 67
215 220 224 224 227 229 232 235 238 242 244 246 246 243 238 232 225 219 213 213 216 218 219 215 213 212 219 227 265 313 331 354 9 10 5 329 225 218 216 217 214 208 206 205 201 198 197 196 191 184 174 168 164 153 145 137 128 119 108 100 95 91 86 84 84 86 88 92 94 91 87 83 80 79 79 80 81 82 80 77 75 72 70 68 67
215 217 222 225 231 233 236 238 239 241 242 244 242 241 239 231 224 218 212 213 216 219 218 215 218 226 234 244 258 279 296 333 358 0 358 346 258 223 226 223 217 214 210 208 206 204 202 199 196 189 181 175 170 162 155 147 138 129 117 109 102 96 92 89 87 88 89 92 94 91 87 84 81 80 79 80 81 82 81 79 77 74 72 70 67
218 219 221 227 233 235 236 238 239 240 241 241 240 240 238 229 223 218 214 214 216 216 215 218 226 235 240 245 251 257 266 290 328 341 345 337 306 246 234 225 220 219 214 211 209 208 205 201 199 193 188 182 176 170 165 158 150 140 128 118 110 103 99 94 90 91 93 95 94 91 89 86 83 80 80 80 81 83 83 81 79 77 74 72 70
220 221 224 229 234 235 237 239 240 240 240 240 239 239 235 229 224 221 217 216 217 217 219 226 234 237 236 240 242 244 253 268 292 312 314 313 305 270 236 228 222 219 216 214 213 211 207 203 201 198 193 188 183 178 173 169 164 154 141 128 119 111 105 100 94 94 98 99 96 93 90 87 84 81 81 81 81 84 84 83 81 78 76 73 72
222 226 229 232 236 237 239 240 239 240 240 238 237 236 232 228 227 224 220 221 221 222 226 231 236 234 233 237 237 238 246 253 258 264 285 300 295 276 244 234 227 222 219 217 216 214 212 207 204 200 197 193 188 184 181 179 178 171 159 146 134 123 114 107 101 99 100 100 99 96 92 89 86 83 82 81 82 84 85 85 82 80 78 75 73
229 231 233 236 238 238 240 240 239 239 238 237 235 232 230 228 230 227 223 225 225 227 230 232 235 233 233 236 237 239 244 251 253 259 277 292 282 267 253 241 234 229 225 221 219 217 215 211 207 204 200 197 193 191 189 188 190 188 181 171 160 146 132 120 112 108 104 103 104 101 95 91 86 84 83 82 82 84 86 86 84 81 79 78 76
234 235 237 239 239 239 241 241 240 238 236 235 232 230 229 226 228 229 226 227 229 231 231 231 233 233 233 235 239 242 246 251 253 260 272 279 274 264 257 246 240 238 232 226 223 220 216 213 210 207 204 201 199 198 198 197 199 198 196 192 186 177 163 146 133 121 113 110 110 109 103 95 89 85 84 85 83 83 86 86 85 83 81 80 77
236 237 240 243 241 241 242 243 242 239 237 234 231 230 228 226 229 229 227 229 230 230 230 230 232 233 234 237 241 244 245 247 249 257 265 268 269 265 258 247 245 244 237 230 226 221 218 215 212 209 207 206 204 204 204 204 205 205 204 202 199 196 192 180 165 147 132 123 120 119 113 103 94 90 87 85 85 85 88 87 86 84 82 81 79
237 239 243 246 245 245 245 245 244 241 238 234 232 232 229 229 231 230 228 229 227 226 228 229 231 233 236 239 243 243 241 242 247 254 260 262 264 262 257 249 249 246 240 234 229 222 218 218 217 215 213 211 210 210 209 209 211 212 211 209 208 207 205 202 193 177 156 143 137 133 125 113 101 96 91 86 86 87 89 89 87 85 83 81 80
238 242 247 249 251 248 247 246 244 241 238 235 232 231 230 231 230 228 227 226 225 225 227 228 230 233 237 241 241 240 239 242 248 254 256 257 258 258 254 253 252 245 239 237 232 227 223 222 221 220 218 217 215 213 213 214 216 217 217 215 214 213 210 210 206 196 181 168 160 153 142 130 120 109 98 92 89 87 89 90 90 88 85 82 80
240 246 250 253 254 249 248 245 243 241 239 236 232 231 233 231 228 227 226 225 224 224 225 227 230 233 236 238 236 236 240 245 250 252 252 252 256 258 256 255 255 248 244 242 236 233 230 227 225 224 222 221 219 216 216 217 219 221 221 219 218 216 214 214 212 207 200 192 183 175 167 155 145 133 114 101 95 90 90 91 91 91 88 84 81
243 248 252 254 253 250 248 245 242 241 241 237 233 233 232 230 228 228 228 225 224 223 223 224 228 232 234 235 233 236 243 249 253 251 247 249 256 261 262 259 258 254 253 250 241 237 235 232 229 227 226 224 222 220 218 220 221 223 224 223 222 219 218 218 216 214 211 208 203 194 188 182 173 161 143 122 110 101 97 95 94 93 91 87 83
247 249 252 252 251 250 248 245 242 241 241 238 234 233 230 228 227 229 228 226 224 222 220 221 226 230 230 232 234 238 245 253 254 247 245 251 258 264 266 265 262 259 259 256 246 240 239 236 234 232 230 227 224 222 221 222 223 225 226 227 226 222 220 220 219 219 219 218 216 209 203 197 194 186 174 160 143 129 117 108 100 96 94 90 86
251 250 250 250 249 249 248 246 242 241 240 238 235 232 228 225 225 226 226 225 223 219 219 219 222 226 228 232 236 243 250 255 251 244 245 250 258 265 268 267 265 262 261 259 252 245 241 239 237 235 233 229 226 224 223 224 226 228 229 229 228 224 222 222 222 222 223 224 223 220 216 210 207 203 198 192 181 166 150 135 118 108 101 96 92
254 251 250 249 250 249 248 246 241 239 237 236 232 227 225 223 222 223 223 224 221 218 220 217 218 224 229 234 241 250 255 254 250 249 249 251 259 267 269 268 266 264 261 259 256 251 245 240 238 237 234 231 228 226 225 226 227 230 231 231 229 226 224 225 226 225 225 226 227 226 223 219 216 214 213 210 206 199 188 174 153 133 118 108 101
256 253 251 250 250 249 247 245 241 236 233 231 228 223 219 217 219 219 217 218 218 218 219 219 224 229 231 238 247 254 257 255 255 255 254 257 265 270 272 270 267 265 261 259 258 254 248 243 239 237 235 233 230 228 227 228 229 231 232 232 230 227 226 228 229 228 227 228 229 230 227 225 223 222 221 221 220 218 213 205 195 180 157 133 119
258 255 252 250 249 248 245 242 238 233 229 226 223 220 215 214 219 218 213 212 214 217 221 225 231 234 237 244 249 254 257 257 257 256 257 263 269 273 274 272 269 266 263 260 257 253 248 245 242 238 236 235 234 231 229 229 231 232 233 232 230 228 228 230 230 230 230 230 231 231 231 229 227 226 226 226 227 227 225 222 220 214 203 183 160
258 254 252 250 247 243 238 236 232 228 226 222 220 218 216 216 218 217 213 212 214 217 223 228 230 235 241 245 249 254 257 256 255 256 261 267 270 273 274 271 269 265 261 259 255 251 249 247 244 240 237 237 236 235 233 232 232 232 232 232 231 229 228 229 231 232 232 232 232 233 233 233 231 230 229 228 229 231 231 230 231 227 221 214 206
255 252 251 247 243 237 232 231 227 226 225 219 215 215 215 216 214 213 212 212 213 217 223 226 228 235 240 244 248 252 254 254 256 260 265 268 269 271 271 269 266 263 259 257 255 252 250 247 245 241 239 239 239 238 235 235 234 234 232 231 230 229 228 229 231 233 233 233 234 234 234 235 234 233 232 231 232 233 234 235 235 232 228 225 224
251 249 247 243 239 233 228 227 226 227 221 210 211 216 215 213 211 212 212 213 216 221 225 227 230 235 239 245 248 250 253 256 259 263 267 269 269 268 268 267 263 261 258 255 254 252 249 247 246 244 243 243 242 241 238 236 236 236 234 232 230 228 228 229 231 233 235 235 235 235 235 236 235 235 235 234 234 235 236 237 237 235 233 231 230
246 244 242 239 234 229 227 228 228 224 214 210 215 217 213 210 211 214 216 218 222 227 231 233 235 239 242 246 249 253 257 260 263 265 267 270 270 268 266 265 262 260 257 254 253 250 249 247 248 248 247 248 247 245 241 238 237 236 236 234 232 230 229 230 232 234 236 237 237 236 235 236 236 236 237 236 236 237 238 240 240 238 237 235 233
243 240 239 234 228 227 228 229 227 218 214 217 217 215 214 213 214 219 222 224 228 233 236 238 240 244 247 250 254 259 262 265 267 267 269 271 270 269 266 264 261 259 256 254 252 250 249 249 251 252 251 251 249 248 244 241 238 237 236 236 234 232 231 231 232 234 236 238 238 237 237 237 238 238 238 238 238 239 240 241 241 240 240 238 235
241 237 234 228 225 228 228 227 225 218 218 221 220 219 218 217 218 221 225 229 233 237 240 242 245 249 252 257 259 262 265 268 270 270 270 271 270 269 267 263 260 258 256 253 251 251 251 252 253 254 253 252 250 248 245 243 240 238 237 236 236 235 233 233 233 234 236 238 239 238 238 238 239 239 239 239 240 241 241 241 240 239 240 239 236
237 232 227 223 224 224 222 221 219 215 215 215 216 217 216 217 220 224 228 232 237 241 244 248 252 255 258 260 261 264 267 269 270 270 270 271 270 269 267 263 259 257 255 252 251 252 253 253 255 255 254 252 250 248 246 244 242 239 238 237 237 236 235 233 233 234 236 238 239 239 240 240 241 241 240 240 241 242 241 241 241 239 239 240 239
233 227 223 221 220 217 217 214 209 203 198 197 201 208 213 219 223 228 232 236 241 245 248 251 255 258 260 262 263 265 266 268 269 269 270 271 270 268 265 261 258 256 254 251 251 252 253 254 254 255 254 252 250 248 246 245 243 240 239 238 238 238 237 235 234 234 236 239 240 240 240 242 242 242 241 240 241 241 240 240 241 240 239 240 240
228 222 220 219 216 214 209 200 194 188 183 187 198 209 218 222 227 233 236 240 244 248 251 253 255 257 259 261 262 263 265 266 267 268 269 269 269 265 262 258 255 254 252 251 251 252 253 253 253 253 253 252 251 249 247 247 245 242 240 238 238 239 238 236 235 235 236 239 240 240 240 242 242 242 241 241 241 241 240 240 240 240 239 239 240
223 220 219 216 210 202 193 186 188 190 190 199 209 214 220 224 230 237 241 246 249 252 254 256 257 258 259 260 262 264 265 267 267 268 267 267 266 264 261 256 253 252 251 250 250 251 252 251 252 252 252 252 252 250 248 248 247 244 242 240 239 241 240 238 237 236 236 238 240 241 240 241 242 242 241 242 242 241 241 241 241 240 240 240 241
222 218 213 209 201 191 188 189 194 197 198 203 208 214 221 227 234 241 246 251 253 254 255 257 259 260 260 262 265 267 268 268 267 267 266 265 264 263 260 255 253 252 250 250 249 250 249 249 251 252 251 251 252 250 249 249 249 246 243 241 240 241 241 240 239 238 238 238 240 241 241 241 241 241 242 242 242 242 242 242 242 241 241 242 243
218 212 204 199 191 186 189 193 195 198 201 201 207 217 224 229 235 241 248 252 255 256 258 260 263 265 265 265 268 269 268 268 267 265 264 264 263 261 258 255 253 251 251 251 250 249 248 248 250 251 250 249 250 249 249 250 251 249 245 242 241 241 242 242 241 242 242 240 239 240 240 240 241 241 242 242 242 243 243 242 242 241 241 243 244
205 202 195 189 188 187 191 196 200 205 207 205 209 217 223 227 231 239 249 253 257 261 265 268 270 271 270 270 270 269 268 269 267 265 263 263 262 259 257 256 254 251 251 250 249 248 247 248 248 249 249 248 248 248 248 250 252 251 247 243 241 242 243 244 244 243 242 239 237 238 240 241 242 241 241 243 243 244 245 243 241 240 242 243 244
201 202 194 189 193 196 199 204 208 208 206 203 206 212 220 223 226 238 249 258 265 270 274 275 275 275 273 272 271 269 269 270 268 265 263 262 260 257 257 257 255 252 250 248 248 247 247 248 248 248 249 248 248 248 248 250 250 250 249 247 244 243 244 244 244 241 239 237 235 237 241 243 243 242 243 244 245 244 244 244 242 240 241 243 244
199 199 194 192 198 200 201 204 204 205 202 199 199 203 210 214 219 234 250 265 275 279 282 282 280 279 276 274 273 271 271 270 268 266 262 261 261 259 258 259 257 253 251 247 246 247 247 248 248 248 249 249 249 248 248 249 249 249 249 249 248 245 245 246 246 244 241 239 238 240 243 244 245 245 245 246 246 245 244 244 243 242 242 243 245
195 194 193 192 197 198 197 198 198 199 197 193 191 192 199 205 216 234 254 271 280 288 292 291 289 286 282 280 276 272 270 270 269 267 264 265 266 264 261 259 257 255 253 248 246 249 250 250 250 248 247 247 248 248 249 250 250 250 250 250 249 248 248 249 250 250 247 244 242 243 244 245 246 247 248 248 247 246 244 244 245 244 244 244 245
192 193 194 191 192 192 193 194 194 192 191 190 191 198 207 216 228 239 255 271 284 297 304 304 301 297 292 288 283 277 273 270 269 268 267 268 268 266 262 260 258 256 254 250 249 251 253 254 250 247 246 246 247 249 250 252 252 252 253 253 252 251 250 251 252 253 251 248 246 245 246 247 247 247 249 249 248 247 245 245 246 246 245 244 245
194 197 198 195 190 190 194 194 193 190 192 195 199 208 215 223 233 242 254 272 293 305 311 312 311 307 301 296 290 284 279 273 271 269 268 268 267 266 264 261 259 257 254 252 252 254 255 254 249 246 246 245 247 249 250 252 253 253 255 255 254 253 252 253 254 254 252 251 249 248 248 249 249 249 250 251 250 248 247 246 247 247 247 246 245
200 199 199 199 194 194 195 193 189 188 193 199 204 211 216 224 234 245 262 280 301 312 316 316 315 314 310 304 298 292 285 278 273 271 269 268 267 265 264 261 258 257 256 255 254 255 255 251 247 246 246 246 248 249 248 250 251 252 254 255 254 253 253 253 253 253 253 252 252 251 250 251 251 251 252 253 252 250 249 248 247 248 248 247 246
202 196 195 197 196 197 194 191 189 189 194 199 205 214 219 227 235 248 268 283 297 309 315 316 318 318 314 310 304 298 292 284 277 273 270 268 267 265 263 261 259 258 258 256 254 254 253 248 245 245 245 247 249 248 247 248 250 252 254 254 253 252 252 252 252 253 253 252 252 253 253 253 253 253 253 254 253 252 251 249 247 248 248 246 246
201 197 197 198 199 200 196 195 197 197 199 202 208 216 222 229 235 247 265 278 290 302 313 317 320 322 320 316 311 304 298 290 283 278 273 270 267 265 264 262 260 258 257 256 254 253 251 247 244 245 246 246 248 248 247 247 250 253 254 254 252 251 251 251 251 252 254 253 254 255 256 257 257 257 256 256 255 253 252 250 249 249 249 248 247
202 201 202 203 204 203 201 202 203 202 204 209 216 222 227 233 236 247 260 273 289 301 312 318 322 325 325 323 319 313 306 297 289 281 277 273 270 268 266 263 260 257 256 254 253 252 250 247 246 247 247 247 248 249 249 250 252 254 255 256 254 252 252 252 253 253 254 255 256 257 258 259 259 260 260 258 258 256 253 252 252 251 249 248 249
205 206 205 205 204 204 204 206 207 206 208 214 220 226 232 238 243 253 264 275 292 305 314 319 322 325 326 326 324 319 313 305 295 287 281 276 272 270 268 264 261 258 255 253 252 251 249 247 247 248 248 249 250 252 252 253 254 254 255 257 257 256 254 253 253 255 256 256 256 257 258 259 260 261 261 259 259 259 257 254 254 254 250 248 250
207 209 209 206 206 206 206 208 211 211 213 217 221 226 232 238 247 256 267 277 288 300 310 315 319 321 323 325 324 321 316 310 302 294 287 279 274 271 268 266 263 260 257 255 254 252 250 248 248 249 250 250 251 253 254 255 254 252 254 258 259 258 256 254 254 256 258 259 259 260 259 260 261 261 261 259 258 259 260 256 254 254 251 248 248
210 210 210 209 209 209 209 212 216 216 217 220 222 226 229 234 244 254 266 276 283 291 301 308 312 313 317 321 322 321 317 312 306 300 293 286 280 274 270 268 265 263 259 257 256 254 252 251 250 251 251 252 252 253 254 255 253 252 255 258 258 258 258 256 255 257 261 262 262 262 261 261 261 262 261 259 257 257 259 258 254 253 252 250 249
212 211 211 211 213 213 214 216 219 220 221 222 224 226 228 233 240 249 258 267 278 288 295 301 304 306 310 316 320 322 319 314 309 304 299 291 285 279 274 269 264 263 262 260 258 256 255 254 253 252 252 254 254 253 254 254 254 254 255 256 257 260 258 255 254 255 259 264 265 263 263 262 261 262 262 259 258 259 261 261 257 255 255 254 254
215 216 215 215 217 218 219 219 220 222 222 223 225 226 228 232 240 250 257 263 271 282 291 298 300 299 302 308 314 318 318 316 313 308 302 295 291 286 278 271 264 262 260 259 258 258 258 258 257 255 254 254 254 254 254 252 253 253 254 253 254 257 258 256 256 255 257 262 265 264 264 264 263 263 263 262 262 263 266 265 260 257 259 260 259
218 220 219 219 222 224 223 222 221 222 222 224 226 227 229 234 242 251 258 263 268 276 285 296 299 294 294 300 305 311 315 317 316 310 303 298 296 291 281 272 266 262 259 260 261 262 262 262 262 260 258 256 254 255 254 253 253 252 252 253 254 255 257 258 258 257 256 257 260 264 265 265 265 265 264 263 262 262 266 266 261 257 258 260 261
220 221 222 223 226 227 226 224 222 221 222 223 225 229 232 236 243 250 256 262 268 274 280 291 297 294 291 294 299 304 309 312 312 306 300 298 298 293 283 272 266 266 266 268 268 268 268 265 264 263 260 257 255 255 255 253 253 252 251 251 251 253 255 257 256 254 254 255 257 260 262 263 267 270 268 265 262 262 264 265 262 259 259 260 262
222 223 223 224 226 227 225 223 221 219 219 221 224 229 232 236 242 248 253 259 265 271 276 283 291 292 289 291 295 299 303 307 306 300 295 297 300 297 286 271 264 265 269 273 273 273 272 269 265 263 261 258 256 255 253 252 252 251 248 245 246 248 248 251 253 252 254 257 255 254 258 260 263 269 270 268 265 263 263 261 261 262 264 266 265
222 222 222 224 227 227 224 220 218 217 217 221 226 230 232 236 242 247 251 256 262 267 270 275 282 286 284 285 291 296 300 303 300 296 294 298 302 300 288 272 262 261 266 274 278 275 270 264 262 264 265 264 259 255 253 252 250 247 243 242 244 246 246 247 249 250 252 251 247 247 252 255 257 262 266 266 265 264 263 260 260 263 267 271 271